Location: West Cummington
(42.4920°N, 72.9680°W)
Time: 04:23:11
(UTC-04:00)

Cosmos 2221 - Visible Passes

Search period start: 29 September 2016 00:00
Search period end: 09 October 2016 00:00
Orbit: 593 x 618 km, 82.5° (Epoch: 28 September)

Date Brightness Start Highest point End Pass type
(mag) Time Alt. Az. Time Alt. Az. Time Alt. Az.
29 Sep 4.7 20:57:15 17° NNE 20:57:15 17° NNE 20:58:13 10° NNE visible
30 Sep 4.4 21:09:43 23° N 21:09:43 23° N 21:11:24 10° N visible
01 Oct 4.5 19:45:07 13° NE 19:45:07 13° NE 19:46:00 10° NE visible
01 Oct 4.4 21:21:56 28° NNW 21:21:56 28° NNW 21:24:23 10° N visible
02 Oct 3.5 19:56:53 27° ENE 19:56:53 27° ENE 19:59:49 10° NNE visible
02 Oct 4.7 21:33:38 23° WNW 21:33:39 23° WNW 21:37:07 10° NNW visible
03 Oct 2.6 20:04:57 10° SSE 20:09:08 50° E 20:13:19 10° NNE visible
03 Oct 5.4 21:44:37 10° WSW 21:47:02 14° WNW 21:49:26 10° NW visible
04 Oct 5.7 06:12:38 10° NE 06:14:47 13° ENE 06:16:55 10° E visible
04 Oct 2.4 20:17:56 10° S 20:22:16 87° E 20:26:36 10° N visible
05 Oct 5.4 06:24:51 10° NNE 06:28:10 22° ENE 06:31:30 10° SE visible
05 Oct 4.2 18:56:29 10° ESE 18:58:24 13° E 19:00:18 10° ENE visible
05 Oct 3.2 20:31:13 10° SSW 20:35:28 54° W 20:39:42 10° N visible
06 Oct 3.7 19:08:07 10° SE 19:11:21 21° E 19:14:36 10° NE visible
06 Oct 4.2 20:44:51 10° SW 20:48:44 32° WNW 20:52:37 10° NNW visible
07 Oct 3.1 19:20:28 10° SSE 19:24:23 35° E 19:28:17 10° NNE visible
07 Oct 5.1 20:58:53 10° WSW 21:02:04 20° WNW 21:05:15 10° NNW visible
08 Oct 2.5 19:33:14 10° S 19:37:28 60° E 19:41:43 10° NNE visible
08 Oct 5.7 21:13:41 10° W 21:15:29 12° WNW 21:17:15 10° NW visible
